Galliano, LA

3:09 AM CDT on August 27, 2016 (GMT -0500)
Galliano

Weather History for KGAO - November, 2013

Change the Weather History Date:

Wednesday, November 20, 2013

  Actual Average (KAXO) Record (KAXO)
Temperature  
Mean Temperature 60 °F -  
Max Temperature 71 °F 65 °F 77 °F (1998)
Min Temperature 50 °F 62 °F 50 °F (2000)
Degree Days  
Heating Degree Days 4    
Growing Degree Days 10 (Base 50)    
Moisture  
Dew Point 55 °F    
Average Humidity 82    
Maximum Humidity 100    
Minimum Humidity 65    
Precipitation  
Precipitation 0.00 in - - ()
Sea Level Pressure  
Sea Level Pressure 30.07 in    
Wind  
Wind Speed 7 mph (East)    
Max Wind Speed 10 mph    
Max Gust Speed -    
Visibility 9 miles    
Events      
Averages and records for this station are not official NWS values.
T = Trace of Precipitation, MM = Missing Value Source: NWS Daily Summary

Daily Weather History Graph

Daily Weather History Graph

Search for Another Location

Airport or City:

Trip Planner

Search our weather history database for the weather conditions in past years. The results will help you decide how hot, cold, wet, or windy it might be!

Date:

Astronomy

Nov. 20, 2013 Rise Set
Actual Time 6:29 AM CST 5:03 PM CST
Civil Twilight 6:04 AM CST 5:29 PM CST
Nautical Twilight 5:35 AM CST 5:58 PM CST
Astronomical Twilight 5:06 AM CST 6:26 PM CST
Moon 7:46 PM CST (11/20) 8:54 AM CST (11/20)
Length of Visible Light 11h 25m
Length of Day
10h 34m
Waning Gibbous, 91% of the Moon is Illuminated
Nov 20
Waning Gibbous
Nov 25
Last Quarter
Dec 2
New
Dec 9
First Quarter
Dec 17
Full

Hourly Weather History & Observations

Time (CST) Temp. Dew Point Humidity Pressure Visibility Wind Dir Wind Speed Gust Speed Precip Events Conditions
12:15 AM 55.6 °F 46.4 °F 71% 30.06 in 10.0 mi East 6.9 mph - N/A   Clear
12:35 AM 54.9 °F 47.5 °F 76% 30.05 in 10.0 mi East 5.8 mph - N/A   Clear
12:55 AM 54.7 °F 48.4 °F 79% 30.05 in 10.0 mi East 6.9 mph - N/A   Clear
1:15 AM 55.4 °F 48.7 °F 78% 30.06 in 10.0 mi East 5.8 mph - N/A   Clear
1:35 AM 55.0 °F 48.9 °F 80% 30.05 in 10.0 mi East 5.8 mph - N/A   Clear
1:55 AM 54.7 °F 48.9 °F 81% 30.05 in 10.0 mi East 5.8 mph - N/A   Clear
2:15 AM 54.5 °F 48.4 °F 80% 30.06 in 10.0 mi East 4.6 mph - N/A   Clear
2:35 AM 54.1 °F 48.6 °F 81% 30.06 in 10.0 mi East 5.8 mph - N/A   Clear
2:55 AM 53.8 °F 48.6 °F 82% 30.05 in 10.0 mi East 4.6 mph - N/A   Clear
3:15 AM 54.1 °F 49.1 °F 83% 30.05 in 10.0 mi East 4.6 mph - N/A   Mostly Cloudy
3:35 AM 53.8 °F 48.7 °F 83% 30.05 in 10.0 mi ENE 6.9 mph - N/A   Scattered Clouds
3:55 AM 54.3 °F 48.7 °F 81% 30.05 in 10.0 mi East 8.1 mph - N/A   Clear
4:15 AM 54.5 °F 48.6 °F 80% 30.05 in 10.0 mi East 6.9 mph - N/A   Clear
4:35 AM 54.0 °F 48.6 °F 82% 30.06 in 10.0 mi ENE 4.6 mph - N/A   Clear
4:55 AM 50.5 °F 47.7 °F 90% 30.06 in 10.0 mi East 4.6 mph - N/A   Clear
5:15 AM 50.9 °F 48.4 °F 91% 30.06 in 10.0 mi East 5.8 mph - N/A   Clear
5:35 AM 53.6 °F 48.6 °F 83% 30.07 in 10.0 mi East 5.8 mph - N/A   Clear
5:55 AM 53.1 °F 48.4 °F 84% 30.07 in 10.0 mi ENE 5.8 mph - N/A   Clear
6:15 AM 53.2 °F 48.7 °F 85% 30.07 in 10.0 mi East 6.9 mph - N/A   Clear
6:35 AM 53.1 °F 48.9 °F 86% 30.07 in 10.0 mi East 5.8 mph - N/A   Clear
6:55 AM 53.6 °F 49.5 °F 86% 30.09 in 10.0 mi ENE 6.9 mph - N/A   Clear
7:15 AM 52.0 °F 48.9 °F 89% 30.09 in 10.0 mi NE 6.9 mph - N/A   Clear
7:35 AM 53.6 °F 50.4 °F 89% 30.09 in 10.0 mi NE 5.8 mph - N/A   Clear
7:55 AM 56.7 °F 50.7 °F 80% 30.10 in 10.0 mi East 9.2 mph - N/A   Clear
8:15 AM 57.2 °F 50.2 °F 77% 30.10 in 10.0 mi East 8.1 mph - N/A   Clear
8:35 AM 58.3 °F 51.1 °F 77% 30.11 in 10.0 mi East 8.1 mph - N/A   Clear
8:55 AM 59.5 °F 52.2 °F 77% 30.11 in 10.0 mi East 8.1 mph - N/A   Clear
9:15 AM 61.5 °F 53.6 °F 75% 30.11 in 10.0 mi ENE 8.1 mph - N/A   Clear
9:35 AM 62.6 °F 54.0 °F 73% 30.11 in 10.0 mi East 8.1 mph - N/A   Clear
9:55 AM 63.7 °F 53.8 °F 70% 30.11 in 10.0 mi East 8.1 mph - N/A   Clear
10:15 AM 64.2 °F 54.1 °F 70% 30.10 in 10.0 mi East 9.2 mph - N/A   Clear
10:35 AM 64.8 °F 54.7 °F 70% 30.10 in 10.0 mi East 8.1 mph - N/A   Clear
10:55 AM 65.7 °F 54.9 °F 68% 30.09 in 10.0 mi East 6.9 mph - N/A   Clear
11:15 AM 67.3 °F 55.8 °F 66% 30.08 in 10.0 mi East 8.1 mph - N/A   Clear
11:35 AM 67.5 °F 56.1 °F 67% 30.08 in 10.0 mi East 8.1 mph - N/A   Clear
11:55 AM 68.0 °F 56.5 °F 67% 30.07 in 10.0 mi East 6.9 mph - N/A   Clear
12:15 PM 68.9 °F 57.2 °F 66% 30.06 in 10.0 mi East 5.8 mph - N/A   Clear
12:35 PM 69.4 °F 57.4 °F 65% 30.06 in 10.0 mi East 9.2 mph - N/A   Clear
12:55 PM 70.3 °F 57.9 °F 65% 30.04 in 10.0 mi East 10.4 mph - N/A   Clear
1:15 PM 70.7 °F 58.5 °F 65% 30.04 in 10.0 mi East 9.2 mph - N/A   Clear
1:35 PM 71.1 °F 58.8 °F 65% 30.04 in 10.0 mi East 9.2 mph - N/A   Clear
1:55 PM 71.8 °F 59.5 °F 65% 30.03 in 10.0 mi East 9.2 mph - N/A   Clear
2:15 PM 71.4 °F 59.0 °F 65% 30.02 in 10.0 mi SSE 8.1 mph - N/A   Clear
2:35 PM 71.4 °F 59.0 °F 65% 30.02 in 10.0 mi SE 10.4 mph - N/A   Clear
2:55 PM 70.9 °F 59.7 °F 68% 30.03 in 10.0 mi SE 9.2 mph - N/A   Clear
3:15 PM 70.3 °F 60.1 °F 70% 30.03 in 10.0 mi SE 8.1 mph - N/A   Clear
3:35 PM 69.6 °F 60.1 °F 72% 30.04 in 10.0 mi SE 6.9 mph - N/A   Clear
3:55 PM 68.9 °F 60.8 °F 75% 30.04 in 10.0 mi ESE 5.8 mph - N/A   Clear
4:15 PM 67.6 °F 60.4 °F 78% 30.05 in 10.0 mi ESE 5.8 mph - N/A   Clear
4:35 PM 66.7 °F 60.6 °F 81% 30.05 in 10.0 mi ESE 5.8 mph - N/A   Clear
4:55 PM 65.7 °F 60.3 °F 83% 30.06 in 10.0 mi ESE 5.8 mph - N/A   Clear
5:15 PM 64.8 °F 60.3 °F 85% 30.06 in 10.0 mi ESE 8.1 mph - N/A   Clear
5:35 PM 64.4 °F 60.8 °F 88% 30.07 in 10.0 mi ESE 5.8 mph - N/A   Clear
5:55 PM 63.9 °F 61.2 °F 91% 30.07 in 10.0 mi ESE 5.8 mph - N/A   Clear
6:15 PM 63.7 °F 61.7 °F 93% 30.08 in 10.0 mi ESE 5.8 mph - N/A   Clear
6:35 PM 63.5 °F 62.2 °F 96% 30.08 in 10.0 mi East 6.9 mph - N/A   Clear
6:55 PM 63.5 °F 62.6 °F 97% 30.08 in 10.0 mi East 5.8 mph - N/A   Clear
7:15 PM 63.5 °F 63.0 °F 98% 30.08 in 10.0 mi East 6.9 mph - N/A   Clear
7:35 PM 63.1 °F 63.1 °F 100% 30.09 in 10.0 mi East 5.8 mph - N/A   Clear
7:55 PM 62.8 °F 62.8 °F 100% 30.09 in 7.0 mi East 5.8 mph - N/A   Clear
8:15 PM 62.4 °F 62.4 °F 100% 30.10 in 7.0 mi East 3.5 mph - N/A   Scattered Clouds
8:35 PM 61.7 °F 61.7 °F 100% 30.10 in 7.0 mi East 4.6 mph - N/A   Scattered Clouds
8:55 PM 61.2 °F 61.2 °F 100% 30.10 in 7.0 mi East 3.5 mph - N/A   Scattered Clouds
9:15 PM 60.8 °F 60.8 °F 100% 30.10 in 7.0 mi East 3.5 mph - N/A   Scattered Clouds
9:35 PM 60.3 °F 60.3 °F 100% 30.10 in 5.0 mi East 3.5 mph - N/A   Scattered Clouds
9:55 PM 59.9 °F 59.9 °F 100% 30.10 in 5.0 mi East 4.6 mph - N/A   Scattered Clouds
10:15 PM 60.1 °F 60.1 °F 100% 30.09 in 5.0 mi ESE 5.8 mph - N/A   Scattered Clouds
10:35 PM 60.3 °F 60.3 °F 100% 30.09 in 5.0 mi ESE 5.8 mph - N/A   Clear
10:55 PM 60.3 °F 60.3 °F 100% 30.09 in 7.0 mi ESE 5.8 mph - N/A   Clear
11:15 PM 60.3 °F 60.3 °F 100% 30.08 in 7.0 mi ESE 5.8 mph - N/A   Clear
11:35 PM 60.3 °F 60.3 °F 100% 30.08 in 7.0 mi ESE 5.8 mph - N/A   Clear
11:55 PM 60.1 °F 60.1 °F 100% 30.08 in 5.0 mi ESE 4.6 mph - N/A   Clear